User: anonymous   Login
Location: Unspecified
(42.2600°N, 0.0000°E)
Time: 18:51:50
(UTC+00:00)
Language:

ISS - Orbit

View from above orbital plane
View from above orbital plane
View from above satellite
View from above satellite

Ground track
Ground track

The orbit data is extracted from the following two-line orbital elements,

1 25544U 98067A   20221.20025503  .00016717  00000-0  10270-3 0  9056
2 25544  51.6401  91.0487 0001128   7.3517 352.7649 15.49157503 40070
Epoch (UTC): 08 August 2020 04:48:22
Eccentricity: 0.0001128
inclination: 51.6401°
perigee height: 418 km
apogee height: 420 km
right ascension of ascending node: 91.0487°
argument of perigee: 7.3517°
revolutions per day: 15.49157503
mean anomaly at epoch: 352.7649°
orbit number at epoch: 4007

The dashed part of the orbit path shows where the satellite is in the earth's shadow,  

DLR